Orbital Elements at Epoch 2459200.5 (2020-Dec-17.0) TDB
Reference: JPL 24 (heliocentric ecliptic J2000)
Element | Value | Uncertainty (1-sigma) | Units |
e | .1080641883752838 | 3.8102e-08 | |
a | 2.586662364669431 | 1.0374e-08 | au |
q | 2.307136795630536 | 9.8553e-08 | au |
i | 1.152585681909472 | 4.4013e-06 | deg |
node | 84.58169412158294 | 0.00021305 | deg |
peri | 350.7183981104201 | 0.00021408 | deg |
M | 6.885114285251174 | 2.2036e-05 | deg |
tp | 2459171.438589037950 (2020-Nov-17.93858904) | 9.2946e-05 | TDB |
period | 1519.525677118975 4.16 | 9.1409e-06 2.503e-08 | d yr |
n | .2369160359847034 | 1.4252e-09 | deg/d |
Q | 2.866187933708325 | 1.1495e-08 | au |
|
| | Orbit Determination Parameters
Additional Information
|